EHI
0 0 0 0 0 0 0 0 0 0 0 0 0 0 0 0 0 0 0 0 1 2 6 11 16 17 16 14 11 9 9 8 6 3 1 1 0 0 1 0 0 0 0 0 0 0 0 0 0
0 0 0 0 0 0 0 0 0 0 0 0 0 0 0 0 0 0 0 0 1 2 6 12 16 17 17 16 13 10 9 8 7 4 3 2 1 1 1 0 0 0 0 0 0 0 0 0 0
0 0 0 0 0 0 0 0 0 0 0 0 0 0 0 0 0 0 0 0 1 2 7 13 17 18 17 16 14 11 10 9 8 6 4 2 2 1 1 0 0 0 0 0 0 0 0 0 0
0 0 0 0 0 0 0 0 0 0 0 0 0 0 0 0 0 1 1 1 2 3 7 12 17 19 17 14 12 11 10 9 8 5 3 1 1 1 0 0 0 0 0 0 0 0 0 0 0
0 0 0 0 0 0 0 0 0 0 0 0 0 0 0 0 1 2 1 1 2 3 6 11 14 16 16 14 12 10 9 7 7 5 2 1 0 0 0 0 0 0 0 0 0 0 1 1 0
0 0 0 0 0 0 0 0 0 0 0 0 0 0 0 0 2 2 1 1 2 4 6 9 11 12 12 11 10 8 6 5 5 4 2 1 1 1 0 0 0 0 0 0 0 1 2 1 1
0 0 0 0 0 0 0 0 0 0 0 0 0 0 0 0 1 2 3 2 3 4 6 8 8 9 8 8 8 6 4 3 3 3 1 0 1 1 1 1 0 0 0 0 1 2 2 1 0
0 0 0 0 0 0 0 0 0 0 0 0 0 0 0 0 0 2 5 5 5 6 8 7 7 8 8 7 6 5 2 1 1 1 1 0 0 0 0 0 0 0 0 1 2 3 2 1 0
0 0 0 0 0 0 0 0 0 0 0 0 1 1 1 1 1 4 8 8 7 8 8 7 6 7 8 7 6 5 2 0 0 0 0 0 1 1 0 0 0 0 0 1 2 3 2 1 0
0 0 0 0 0 0 0 0 0 0 0 1 2 3 4 3 3 4 8 9 8 7 7 7 6 7 8 7 6 6 4 1 0 0 0 1 2 1 0 0 0 0 0 1 2 2 1 0 0
0 0 0 0 0 0 0 0 0 0 0 1 2 3 4 4 3 3 5 7 6 4 5 6 6 7 7 7 6 6 5 2 0 0 0 1 2 2 0 0 0 0 0 0 1 1 0 0 0
0 0 0 0 0 0 0 0 0 0 0 0 1 2 3 3 3 1 2 4 4 2 3 5 6 6 6 6 6 6 5 3 1 0 0 1 2 2 1 0 0 0 0 0 0 0 0 0 0
0 0 0 0 0 0 0 0 0 0 0 0 0 1 2 3 3 2 1 2 3 3 3 4 6 6 6 6 6 6 5 4 1 0 0 1 2 2 1 0 0 0 0 0 0 0 0 0 0
0 0 0 0 0 0 0 0 0 0 0 0 0 0 1 2 3 3 2 1 2 3 3 4 5 6 6 6 6 5 3 2 1 0 0 0 1 1 1 0 0 0 0 0 0 0 0 0 0
0 0 0 0 0 0 0 0 0 0 0 0 0 0 0 1 2 2 1 0 1 3 3 3 3 4 4 4 4 3 2 1 0 0 0 0 0 0 0 0 0 0 0 0 0 0 0 0 0
0 0 0 0 0 0 0 0 0 0 0 0 0 0 0 1 1 1 0 0 1 2 2 1 1 2 2 3 3 2 1 0 0 0 0 0 0 0 0 0 0 0 0 0 0 0 0 0 0
0 0 0 0 0 0 0 0 0 0 0 0 0 0 0 0 0 0 0 0 0 1 2 1 0 0 2 3 3 2 1 0 0 0 0 0 0 0 0 0 0 0 0 0 0 0 0 0 0
0 0 0 0 0 0 0 0 0 0 0 0 0 0 0 0 0 0 0 0 0 1 1 1 0 1 2 3 3 2 1 0 0 0 0 0 0 0 0 0 0 0 0 0 0 0 0 0 0
0 0 0 0 0 0 0 0 0 0 0 0 0 0 0 0 0 0 0 0 0 0 0 0 0 1 2 2 2 2 1 0 0 0 0 0 0 0 0 0 0 0 0 0 0 0 0 0 0
0 0 0 0 0 0 0 0 0 0 0 0 0 0 0 0 0 0 0 0 0 0 0 0 0 0 1 1 1 1 0 0 0 0 0 0 0 0 0 0 0 0 0 0 0 0 0 0 0
0 0 0 0 0 0 0 0 0 0 0 0 0 0 0 0 0 0 0 0 0 0 0 0 0 0 1 2 2 1 0 0 0 0 0 0 0 0 0 0 0 0 0 0 0 0 0 0 0
0 0 0 0 0 0 0 0 0 0 0 0 0 0 0 0 0 0 0 0 0 0 0 0 0 0 1 2 2 1 0 0 0 0 0 0 0 0 0 0 0 0 0 0 0 0 0 0 0
0 0 0 0 0 0 0 0 0 0 0 0 0 0 0 0 0 0 0 0 0 0 0 0 0 0 0 1 1 1 0 0 0 0 0 0 0 0 0 0 0 0 0 0 0 0 0 0 0
0 0 0 0 0 0 0 0 0 0 0 0 0 0 0 0 0 0 0 0 0 0 0 0 0 0 0 0 0 0 0 0 0 0 0 0 0 0 0 0 0 0 0 0 0 0 0 0 0
0 0 0 0 0 0 0 0 0 0 0 0 0 0 0 0 0 0 0 0 0 0 0 0 0 0 0 0 0 0 0 0 0 0 0 0 0 0 0 0 0 0 0 0 0 0 0 0 0
0 0 0 0 0 0 0 0 0 0 0 0 0 0 0 0 0 0 0 0 0 0 0 0 0 0 0 0 0 0 0 0 0 0 0 0 0 0 0 0 0 0 0 0 0 0 0 0 0
0 0 0 0 0 0 0 0 0 0 0 0 0 0 0 0 0 0 0 0 0 0 0 0 0 0 0 0 0 0 0 0 0 0 0 0 0 0 0 0 0 0 0 0 0 0 0 0 0
0 0 0 0 0 0 0 0 0 0 0 0 0 0 0 0 0 0 0 0 0 0 0 0 0 0 0 0 0 0 0 0 0 0 0 0 0 0 0 0 0 0 0 0 0 0 0 0 0
0 0 0 0 0 0 0 0 0 0 0 0 0 0 0 0 0 0 0 0 0 0 0 0 0 0 0 0 0 0 0 0 0 0 0 0 0 0 0 0 0 0 0 0 0 0 0 0 0
0 0 0 0 0 0 0 0 0 0 0 0 0 0 0 0 0 0 0 0 0 0 0 0 0 0 0 0 0 0 0 0 0 0 0 0 0 0 0 0 0 0 0 0 0 0 0 0 0
Wind_Speed
10 6 2 4 6 4 2 3 2 0 1 1 2 5 6 4 2 3 0 2 3 2 1 1 4 5 6 6 7 8 8 8 9 9 10 10 11 11 12 12 12 12 13 14 14 14 15 15 15
5 3 4 5 5 2 3 3 2 2 2 1 3 4 5 4 3 3 1 2 3 2 2 1 3 5 5 6 7 7 8 8 8 9 9 10 11 11 11 12 12 12 13 13 13 13 13 13 14
5 2 4 5 3 5 4 2 3 1 1 2 3 4 3 2 2 1 0 2 4 3 3 3 4 5 6 6 6 7 7 8 8 8 9 9 10 11 11 11 11 12 12 13 13 12 13 12 13
3 4 5 4 3 4 3 3 2 0 2 4 4 4 3 3 1 1 2 4 4 3 4 4 6 6 6 6 7 7 8 8 8 8 8 9 10 10 11 11 11 12 12 12 12 12 12 11 11
4 4 4 1 3 2 2 2 1 0 1 3 3 3 2 3 4 4 4 5 5 3 3 4 7 7 7 6 7 7 7 7 8 7 8 8 9 10 10 10 11 11 12 12 11 11 11 10 11
4 4 4 3 4 2 1 2 1 2 1 2 3 3 1 2 5 4 4 3 4 4 3 3 6 7 8 7 7 7 7 6 7 7 7 8 9 9 10 10 11 11 11 11 11 10 10 10 11
4 4 4 4 3 1 1 1 3 2 2 2 2 3 1 2 3 3 3 4 4 4 3 3 3 4 6 7 7 7 7 7 6 7 7 7 8 9 10 9 10 10 10 10 10 10 10 10 10
4 4 2 2 3 2 1 1 2 2 1 2 2 3 2 2 2 3 4 4 4 3 3 3 3 3 3 3 6 7 7 7 6 6 6 7 7 7 9 8 9 9 9 9 9 9 10 10 10
4 4 2 3 3 1 1 1 1 1 2 2 2 1 1 1 3 4 4 4 3 3 3 2 3 3 3 2 4 5 6 6 6 6 7 6 4 4 5 6 8 8 8 9 9 9 10 9 8
4 3 4 2 2 2 1 1 1 2 2 1 2 3 2 3 4 3 3 3 2 2 2 2 2 2 2 2 2 2 2 3 3 3 4 3 3 3 4 6 7 7 7 7 7 8 8 6 4
3 3 2 1 1 2 1 1 1 2 1 2 2 2 2 3 2 2 2 2 1 0 1 2 2 2 2 1 1 1 1 2 2 3 3 3 3 3 3 3 3 4 4 3 4 4 3 3 3
2 0 1 1 1 0 0 0 1 1 4 3 3 3 3 2 2 1 0 0 1 1 1 1 2 2 2 2 1 1 1 1 1 1 3 3 2 2 2 2 2 2 2 2 2 2 3 4 4
1 0 1 1 2 1 1 1 1 2 3 1 2 2 3 2 1 0 0 0 1 1 1 1 1 1 1 1 1 1 1 1 1 1 2 2 2 2 2 2 2 2 2 2 2 2 3 4 4
1 1 1 2 1 1 1 3 1 4 2 1 1 1 2 2 1 0 1 1 1 1 1 1 1 1 1 1 1 1 0 1 1 1 2 2 2 2 2 2 2 2 2 2 2 3 3 3 3
2 2 4 2 1 1 1 3 3 4 1 1 1 1 1 2 2 1 1 1 1 1 1 1 0 1 1 1 1 1 0 1 1 1 2 2 2 2 2 2 2 1 1 2 2 2 3 3 3
2 3 2 3 1 1 1 5 3 1 2 1 1 2 1 1 0 0 0 1 1 1 1 1 1 1 1 0 1 1 1 1 1 1 2 2 2 2 2 2 2 1 2 2 3 2 3 3 3
4 2 3 5 2 1 0 5 4 2 1 2 2 2 1 1 2 2 1 1 1 1 1 1 2 1 0 0 1 1 1 1 1 1 1 2 2 2 2 2 1 2 2 2 2 2 3 3 3
2 2 3 4 3 2 3 6 5 3 2 2 2 1 0 0 2 2 2 2 2 1 1 1 2 1 0 0 1 1 1 1 1 1 1 2 2 2 2 2 2 2 2 2 2 3 2 3 3
2 2 5 6 3 3 5 7 6 5 2 2 2 1 0 1 2 2 2 2 2 2 2 1 1 2 1 0 1 1 1 1 1 1 2 2 2 3 3 2 2 2 2 3 3 3 4 3 3
1 2 3 5 3 3 5 7 4 3 2 2 2 1 1 1 2 3 3 3 2 2 1 1 1 2 1 0 1 2 2 1 2 1 1 2 2 2 2 3 3 2 2 3 3 3 2 2 2
2 3 3 5 6 3 2 5 3 3 1 2 2 1 1 0 0 1 2 3 3 3 2 1 1 1 2 1 0 0 0 0 1 1 1 1 1 2 2 3 3 3 3 3 3 4 3 3 1
4 3 3 3 2 4 0 4 6 4 4 4 4 3 2 2 1 1 1 2 3 3 2 2 2 2 2 2 1 1 1 1 1 1 1 1 0 1 2 3 3 3 2 3 4 3 3 4 3
4 4 4 3 2 3 1 2 7 2 4 6 5 3 3 2 1 1 1 1 1 2 2 2 3 3 3 2 1 1 0 0 1 1 1 1 1 0 1 2 3 3 2 3 3 3 3 3 3
2 3 2 2 2 3 3 3 6 2 4 5 4 4 3 2 1 1 1 1 1 2 2 3 3 3 3 3 2 1 0 0 1 1 2 1 1 1 1 1 2 3 2 3 4 4 4 2 2
4 4 4 5 3 5 2 2 7 4 4 4 4 4 4 2 1 1 1 1 2 2 2 2 3 3 3 3 3 1 1 1 2 2 2 1 1 1 1 1 2 2 2 3 3 3 3 3 3
1 3 3 3 4 6 4 5 6 3 4 3 2 2 2 2 1 1 1 1 2 2 2 2 2 3 3 3 2 2 1 1 1 1 1 1 1 2 1 1 2 2 2 2 3 3 3 3 3
1 1 2 2 1 4 6 6 6 2 4 5 4 4 3 3 3 2 2 1 1 2 2 2 1 2 3 3 2 1 1 0 0 1 1 1 1 1 1 1 1 2 2 2 3 2 3 3 3
1 2 2 2 1 5 6 5 5 5 5 5 5 5 5 4 3 3 2 2 2 2 2 2 1 1 2 2 2 1 0 0 1 0 1 1 1 1 1 1 1 2 2 2 3 3 3 3 2
1 1 1 1 2 2 5 8 3 4 4 5 5 5 5 4 4 3 3 2 2 2 2 2 2 2 2 2 2 1 1 0 1 1 1 2 1 1 1 1 2 3 2 2 3 4 3 4 3
3 3 4 2 3 3 4 9 3 2 3 4 5 6 5 5 4 4 3 3 2 2 2 3 2 2 2 2 2 1 1 0 1 1 1 2 2 2 2 1 1 2 2 3 4 4 4 4 4
Wind_Direction
329 330 43 56 60 58 223 251 228 288 332 335 58 88 98 91 103 138 168 70 53 66 32 50 58 72 77 92 97 100 99 101 108 108 111 112 110 109 108 108 107 106 105 104 103 101 99 98 97
328 345 53 63 95 147 248 247 238 224 204 124 56 66 75 71 57 83 43 20 78 78 40 59 58 77 79 88 103 106 106 102 105 110 110 113 112 111 109 108 107 108 108 107 106 103 100 99 98
332 43 80 81 125 186 208 223 217 239 63 71 58 47 77 78 63 61 13 85 84 64 31 33 53 79 82 85 97 109 106 103 101 105 109 111 114 114 111 109 108 109 108 107 106 105 101 98 96
47 48 60 85 197 218 195 228 223 309 26 41 87 66 52 34 35 54 103 98 90 62 36 39 49 70 80 86 94 103 107 106 103 102 108 111 113 115 113 110 109 108 109 108 108 106 102 98 96
58 79 79 94 234 240 236 256 202 166 52 26 72 89 49 1 47 72 85 96 97 71 45 47 50 57 69 79 90 91 99 105 104 104 106 111 113 114 115 114 112 110 110 109 109 107 105 101 100
58 74 107 198 228 243 319 341 46 57 43 20 55 89 131 18 50 60 84 90 99 92 61 55 52 51 55 65 74 80 85 96 102 100 101 104 111 114 116 118 117 115 113 112 111 108 105 106 104
100 102 155 185 206 246 330 10 67 65 45 0 35 98 119 6 33 63 80 90 83 83 69 53 49 51 53 55 63 68 72 78 88 92 93 94 101 113 116 115 119 119 116 114 110 107 103 104 103
116 103 135 188 196 227 324 20 68 66 56 355 54 124 194 285 358 61 70 81 83 74 67 52 40 40 48 57 60 63 65 65 72 78 81 83 94 107 116 114 115 119 118 116 112 107 102 98 98
81 87 180 205 187 220 3 32 359 58 92 39 37 123 188 129 62 68 64 54 62 54 41 43 37 31 35 54 61 62 64 59 66 71 69 72 85 98 113 115 111 116 119 119 115 108 97 90 91
76 144 210 219 169 156 59 54 345 46 42 16 20 30 81 86 80 81 84 80 62 45 32 32 27 24 37 56 58 57 70 57 60 75 78 72 74 84 93 106 104 110 114 117 111 101 94 84 81
86 165 198 277 160 119 91 355 352 138 263 237 209 169 127 96 89 91 107 125 145 148 61 40 28 23 35 42 62 43 52 54 50 72 74 80 75 79 85 97 98 104 103 104 99 95 88 87 86
81 249 212 271 333 32 183 258 3 220 236 231 187 165 144 133 146 127 106 134 85 36 7 36 49 38 29 35 53 67 65 74 66 72 80 93 93 91 92 93 101 103 102 104 101 101 98 93 90
91 216 336 336 19 359 52 269 248 260 249 168 110 129 156 164 178 192 113 339 65 41 2 349 50 67 61 60 51 64 84 93 81 94 86 93 109 116 106 109 102 99 98 110 117 111 103 99 96
144 43 319 306 307 328 65 292 218 245 200 124 122 202 195 185 182 29 352 334 336 350 351 344 51 68 80 91 89 72 58 96 91 97 91 92 107 121 125 118 110 104 104 110 123 125 111 106 105
74 28 340 305 279 260 40 313 239 228 192 171 203 232 234 216 185 177 225 260 257 292 347 357 354 81 91 110 129 104 79 66 102 124 109 99 103 126 133 125 124 120 118 109 110 104 105 105 102
34 37 339 307 351 343 91 268 275 233 135 195 225 257 270 264 166 162 234 313 334 60 32 5 8 63 103 140 150 127 116 117 77 121 127 119 117 124 135 131 136 140 131 121 130 127 114 113 112
35 3 294 303 319 355 217 264 284 276 184 241 254 255 268 344 10 6 17 351 6 33 73 26 7 12 122 191 176 134 127 118 122 102 121 137 133 127 135 134 138 143 130 123 131 127 131 127 120
291 294 279 281 295 326 265 262 281 290 238 240 265 266 242 360 340 350 9 2 8 13 45 42 9 356 346 150 119 112 111 120 102 115 108 140 142 138 134 135 135 135 130 129 125 136 134 136 134
220 245 272 274 282 303 259 271 279 277 266 270 278 281 232 322 326 4 20 19 16 21 38 44 15 355 20 136 167 178 182 166 149 137 139 120 141 137 138 138 144 140 142 145 131 135 139 130 126
220 268 283 298 309 297 279 280 274 261 239 230 249 281 281 339 0 6 19 21 7 9 360 25 14 9 0 253 220 208 197 187 169 153 128 109 131 141 147 146 155 147 138 130 129 126 137 149 132
290 222 246 284 318 315 317 301 296 310 329 345 333 308 321 186 276 330 6 9 358 2 350 350 3 11 10 359 15 68 109 96 107 122 111 87 110 147 149 160 157 154 152 160 163 153 131 157 163
274 245 263 280 326 293 318 286 284 285 320 324 323 325 320 317 327 325 2 6 349 338 340 353 12 24 18 22 84 137 161 189 192 185 159 126 144 137 151 162 160 163 168 172 176 156 146 152 165
251 281 275 253 214 292 291 229 283 328 302 298 299 305 311 306 286 272 296 335 343 341 359 17 16 24 24 20 25 100 72 215 168 155 157 155 171 94 162 163 163 170 179 180 175 164 156 159 163
301 354 7 46 76 294 250 199 281 269 273 294 296 301 300 291 296 293 316 26 10 3 20 28 23 13 17 18 11 15 80 112 140 156 180 175 170 189 192 175 171 177 183 190 183 175 168 170 164
33 54 15 353 354 262 269 232 258 277 292 278 276 281 295 298 307 337 345 13 1 2 5 17 19 5 5 12 358 322 254 197 172 180 195 189 167 205 237 189 181 186 194 198 185 174 176 176 177
353 121 150 233 257 288 315 250 257 285 319 326 306 295 310 317 311 311 322 353 356 356 357 6 9 359 354 358 341 324 257 207 195 191 202 210 208 224 233 196 182 194 197 202 185 177 183 180 181
97 176 187 165 264 280 276 281 293 307 342 351 350 343 317 303 302 304 317 325 329 336 331 324 343 350 344 334 329 344 355 353 250 214 193 216 240 244 238 229 186 200 195 200 186 180 185 180 190
148 154 96 120 251 280 289 278 274 299 304 315 322 308 298 304 305 301 299 302 308 304 314 326 341 330 320 325 312 320 285 257 285 249 250 249 240 235 212 243 208 215 204 203 187 186 186 181 194
37 82 131 168 193 221 285 276 240 253 271 281 285 292 291 296 293 285 290 298 300 303 317 327 314 319 322 316 304 325 314 350 280 268 259 256 251 242 228 240 225 210 202 210 195 191 188 185 192
171 180 158 180 248 218 254 273 276 288 294 284 294 303 300 297 296 293 299 310 313 311 315 310 299 293 290 294 297 305 319 5 298 281 276 264 253 248 239 241 249 227 210 214 199 195 198 195 198